| time (UTC) | temp F | wind direction | speed MPH | gust MPH | rain 1hr in | rain 24hr in | rain mn in | humidity % | barometer mb |
| 20260510230455 | 76 | 256 | 8.0 | 11.0 | 0.00 | 0.00 | 0.00 | 22 | 1023.8 |
| 20260510225455 | 76 | 212 | 1.0 | 6.0 | 0.00 | 0.00 | 0.00 | 23 | 1023.8 |
| 20260510224453 | 76 | 240 | 4.0 | 7.0 | 0.00 | 0.00 | 0.00 | 23 | 1023.8 |
| 20260510223453 | 76 | 253 | 4.0 | 9.0 | 0.00 | 0.00 | 0.00 | 22 | 1023.8 |
| 20260510222448 | 76 | 249 | 5.0 | 7.0 | 0.00 | 0.00 | 0.00 | 22 | 1023.9 |
| 20260510221445 | 76 | 230 | 5.0 | 6.0 | 0.00 | 0.00 | 0.00 | 23 | 1023.9 |
| 20260510220443 | 76 | 226 | 0.0 | 6.0 | 0.00 | 0.00 | 0.00 | 23 | 1023.9 |
| 20260510215444 | 76 | 207 | 4.0 | 5.0 | 0.00 | 0.00 | 0.00 | 23 | 1024.2 |
| 20260510214438 | 76 | 229 | 11.0 | 14.0 | 0.00 | 0.00 | 0.00 | 23 | 1024.1 |
| 20260510213437 | 76 | 257 | 6.0 | 8.0 | 0.00 | 0.00 | 0.00 | 23 | 1024.2 |
| 20260510212437 | 76 | 248 | 6.0 | 9.0 | 0.00 | 0.00 | 0.00 | 23 | 1024.5 |
| 20260510211437 | 75 | 236 | 6.0 | 8.0 | 0.00 | 0.00 | 0.00 | 24 | 1024.6 |
| 20260510210432 | 75 | 244 | 4.0 | 10.0 | 0.00 | 0.00 | 0.00 | 23 | 1024.5 |
| 20260510205432 | 76 | 224 | 2.0 | 3.0 | 0.00 | 0.00 | 0.00 | 23 | 1024.5 |
| 20260510204431 | 76 | 217 | 5.0 | 8.0 | 0.00 | 0.00 | 0.00 | 23 | 1024.8 |
| 20260510203426 | 76 | 287 | 5.0 | 14.0 | 0.00 | 0.00 | 0.00 | 23 | 1024.8 |
| 20260510202421 | 76 | 272 | 5.0 | 10.0 | 0.00 | 0.00 | 0.00 | 23 | 1024.8 |
| 20260510201421 | 78 | 272 | 5.0 | 11.0 | 0.00 | 0.00 | 0.00 | 22 | 1025.0 |
| 20260510200418 | 77 | 177 | 5.0 | 10.0 | 0.00 | 0.00 | 0.00 | 23 | 1024.8 |
| 20260510195415 | 76 | 188 | 3.0 | 5.0 | 0.00 | 0.00 | 0.00 | 23 | 1025.2 |
| 20260510194412 | 75 | 17 | 2.0 | 5.0 | 0.00 | 0.00 | 0.00 | 23 | 1025.2 |
| 20260510193409 | 75 | 283 | 6.0 | 10.0 | 0.00 | 0.00 | 0.00 | 24 | 1025.2 |
| 20260510192406 | 77 | 261 | 6.0 | 9.0 | 0.00 | 0.00 | 0.00 | 23 | 1025.7 |
| 20260510191404 | 76 | 278 | 4.0 | 6.0 | 0.00 | 0.00 | 0.00 | 23 | 1025.6 |
| 20260510190359 | 76 | 250 | 6.0 | 7.0 | 0.00 | 0.00 | 0.00 | 23 | 1025.7 |
| 20260510185359 | 74 | 221 | 1.0 | 5.0 | 0.00 | 0.00 | 0.00 | 25 | 1026.1 |
| 20260510184358 | 74 | 303 | 3.0 | 6.0 | 0.00 | 0.00 | 0.00 | 25 | 1025.9 |
| 20260510183354 | 73 | 237 | 9.0 | 10.0 | 0.00 | 0.00 | 0.00 | 26 | 1026.2 |
| 20260510182352 | 74 | 247 | 7.0 | 8.0 | 0.00 | 0.00 | 0.00 | 25 | 1026.1 |
| 20260510181351 | 75 | 292 | 3.0 | 3.0 | 0.00 | 0.00 | 0.00 | 25 | 1025.9 |
| 20260510180350 | 73 | 230 | 3.0 | 3.0 | 0.00 | 0.00 | 0.00 | 25 | 1026.5 |
| 20260510175348 | 74 | 207 | 1.0 | 5.0 | 0.00 | 0.00 | 0.00 | 25 | 1026.4 |
| 20260510174348 | 73 | 251 | 2.0 | 7.0 | 0.00 | 0.00 | 0.00 | 25 | 1026.4 |
| 20260510173346 | 76 | 215 | 4.0 | 6.0 | 0.00 | 0.00 | 0.00 | 24 | 1026.5 |
| 20260510172344 | 77 | 295 | 3.0 | 5.0 | 0.00 | 0.00 | 0.00 | 23 | 1026.8 |
| 20260510171344 | 73 | 165 | 3.0 | 9.0 | 0.00 | 0.00 | 0.00 | 26 | 1026.8 |
| 20260510170342 | 73 | 167 | 2.0 | 5.0 | 0.00 | 0.00 | 0.00 | 24 | 1027.0 |
| 20260510165341 | 72 | 162 | 2.0 | 5.0 | 0.00 | 0.00 | 0.00 | 27 | 1027.0 |
| 20260510164335 | 72 | 211 | 3.0 | 6.0 | 0.00 | 0.00 | 0.00 | 26 | 1026.9 |
| 20260510163331 | 72 | 151 | 5.0 | 8.0 | 0.00 | 0.00 | 0.00 | 26 | 1026.8 |
| 20260510162329 | 72 | 160 | 3.0 | 7.0 | 0.00 | 0.00 | 0.00 | 27 | 1026.6 |
| 20260510161326 | 70 | 236 | 3.0 | 5.0 | 0.00 | 0.00 | 0.00 | 28 | 1026.6 |
| 20260510160326 | 70 | 240 | 1.0 | 6.0 | 0.00 | 0.00 | 0.00 | 29 | 1026.9 |
| 20260510155323 | 69 | 277 | 3.0 | 8.0 | 0.00 | 0.00 | 0.00 | 32 | 1026.9 |
| 20260510154321 | 68 | 231 | 3.0 | 3.0 | 0.00 | 0.00 | 0.00 | 31 | 1026.9 |
| 20260510153318 | 68 | 255 | 5.0 | 7.0 | 0.00 | 0.00 | 0.00 | 33 | 1026.9 |
| 20260510152317 | 68 | 222 | 4.0 | 6.0 | 0.00 | 0.00 | 0.00 | 33 | 1026.6 |
| 20260510151312 | 67 | 264 | 5.0 | 6.0 | 0.00 | 0.00 | 0.00 | 33 | 1026.6 |
| 20260510150309 | 67 | 235 | 4.0 | 6.0 | 0.00 | 0.00 | 0.00 | 35 | 1026.4 |
| 20260510145308 | 66 | 251 | 4.0 | 7.0 | 0.00 | 0.00 | 0.00 | 35 | 1026.5 |
| 20260510144307 | 65 | 245 | 3.0 | 6.0 | 0.00 | 0.00 | 0.00 | 36 | 1026.5 |
| 20260510143303 | 64 | 243 | 5.0 | 7.0 | 0.00 | 0.00 | 0.00 | 36 | 1026.2 |
| 20260510142305 | 64 | 237 | 5.0 | 9.0 | 0.00 | 0.00 | 0.00 | 38 | 1026.4 |
| 20260510141257 | 63 | 260 | 6.0 | 8.0 | 0.00 | 0.00 | 0.00 | 38 | 1026.2 |
| 20260510140256 | 63 | 271 | 4.0 | 8.0 | 0.00 | 0.00 | 0.00 | 39 | 1026.4 |
| 20260510135251 | 62 | 258 | 3.0 | 5.0 | 0.00 | 0.00 | 0.00 | 40 | 1026.1 |
| 20260510134246 | 62 | 245 | 2.0 | 2.0 | 0.00 | 0.00 | 0.00 | 40 | 1025.9 |
| 20260510133244 | 62 | 245 | 0.0 | 0.0 | 0.00 | 0.00 | 0.00 | 41 | 1025.9 |
| 20260510132244 | 61 | 225 | 0.0 | 0.0 | 0.00 | 0.00 | 0.00 | 41 | 1025.7 |
| 20260510131238 | 61 | 236 | 1.0 | 2.0 | 0.00 | 0.00 | 0.00 | 41 | 1025.5 |
| 20260510130237 | 61 | 244 | 3.0 | 3.0 | 0.00 | 0.00 | 0.00 | 41 | 1025.5 |
| 20260510125236 | 61 | 242 | 2.0 | 5.0 | 0.00 | 0.00 | 0.00 | 41 | 1025.3 |
| 20260510124230 | 61 | 246 | 3.0 | 5.0 | 0.00 | 0.00 | 0.00 | 41 | 1025.2 |
| 20260510123227 | 61 | 251 | 2.0 | 6.0 | 0.00 | 0.00 | 0.00 | 41 | 1024.8 |
| 20260510122226 | 60 | 264 | 5.0 | 6.0 | 0.00 | 0.00 | 0.00 | 42 | 1024.7 |
| 20260510121226 | 60 | 253 | 6.0 | 7.0 | 0.00 | 0.00 | 0.00 | 42 | 1024.8 |
| 20260510120225 | 60 | 229 | 6.0 | 7.0 | 0.00 | 0.00 | 0.00 | 42 | 1024.7 |
| 20260510115225 | 60 | 250 | 3.0 | 8.0 | 0.00 | 0.00 | 0.00 | 42 | 1024.7 |
| 20260510114224 | 60 | 252 | 7.0 | 8.0 | 0.00 | 0.00 | 0.00 | 42 | 1024.7 |
| 20260510113222 | 61 | 257 | 6.0 | 10.0 | 0.00 | 0.00 | 0.00 | 41 | 1024.6 |
| 20260510112221 | 61 | 262 | 6.0 | 7.0 | 0.00 | 0.00 | 0.00 | 41 | 1024.6 |
| 20260510111220 | 61 | 261 | 6.0 | 8.0 | 0.00 | 0.00 | 0.00 | 40 | 1025.0 |
| 20260510110218 | 61 | 245 | 7.0 | 10.0 | 0.00 | 0.00 | 0.00 | 41 | 1024.6 |
| 20260510105217 | 61 | 241 | 6.0 | 11.0 | 0.00 | 0.00 | 0.00 | 41 | 1024.5 |
| 20260510104217 | 61 | 234 | 7.0 | 9.0 | 0.00 | 0.00 | 0.00 | 41 | 1025.0 |
| 20260510103217 | 61 | 243 | 7.0 | 9.0 | 0.00 | 0.00 | 0.00 | 41 | 1024.6 |
| 20260510102212 | 61 | 257 | 5.0 | 9.0 | 0.00 | 0.00 | 0.00 | 40 | 1024.5 |
| 20260510101209 | 61 | 248 | 5.0 | 9.0 | 0.00 | 0.00 | 0.00 | 40 | 1024.3 |
| 20260510100208 | 61 | 228 | 7.0 | 10.0 | 0.00 | 0.00 | 0.00 | 40 | 1024.3 |
| 20260510095205 | 61 | 243 | 8.0 | 9.0 | 0.00 | 0.00 | 0.00 | 40 | 1024.2 |
| 20260510094159 | 62 | 255 | 9.0 | 10.0 | 0.00 | 0.00 | 0.00 | 39 | 1024.2 |
| 20260510093158 | 61 | 228 | 8.0 | 8.0 | 0.00 | 0.00 | 0.00 | 39 | 1024.1 |
| 20260510092156 | 61 | 228 | 6.0 | 10.0 | 0.00 | 0.00 | 0.00 | 40 | 1024.2 |
| 20260510091154 | 61 | 241 | 7.0 | 9.0 | 0.00 | 0.00 | 0.00 | 40 | 1024.5 |
| 20260510090154 | 61 | 242 | 8.0 | 9.0 | 0.00 | 0.00 | 0.00 | 39 | 1024.2 |
| 20260510085150 | 62 | 255 | 8.0 | 10.0 | 0.00 | 0.00 | 0.00 | 38 | 1024.2 |
| 20260510084149 | 62 | 253 | 7.0 | 8.0 | 0.00 | 0.00 | 0.00 | 38 | 1024.3 |
| 20260510083148 | 62 | 255 | 8.0 | 10.0 | 0.00 | 0.00 | 0.00 | 38 | 1024.3 |
| 20260510082146 | 62 | 232 | 6.0 | 10.0 | 0.00 | 0.00 | 0.00 | 37 | 1024.6 |
| 20260510081143 | 63 | 235 | 5.0 | 11.0 | 0.00 | 0.00 | 0.00 | 36 | 1024.8 |
| 20260510080139 | 63 | 237 | 9.0 | 10.0 | 0.00 | 0.00 | 0.00 | 36 | 1024.8 |
| 20260510075134 | 64 | 245 | 7.0 | 9.0 | 0.00 | 0.00 | 0.00 | 35 | 1024.6 |
| 20260510074132 | 64 | 251 | 6.0 | 10.0 | 0.00 | 0.00 | 0.00 | 35 | 1025.1 |
| 20260510073131 | 64 | 245 | 9.0 | 9.0 | 0.00 | 0.00 | 0.00 | 35 | 1025.0 |
| 20260510072130 | 64 | 244 | 5.0 | 9.0 | 0.00 | 0.00 | 0.00 | 35 | 1024.8 |
| 20260510071130 | 65 | 248 | 5.0 | 10.0 | 0.00 | 0.00 | 0.00 | 35 | 1025.0 |
| 20260510070124 | 64 | 250 | 3.0 | 8.0 | 0.00 | 0.00 | 0.00 | 35 | 1025.2 |
| 20260510065122 | 65 | 264 | 6.0 | 10.0 | 0.00 | 0.00 | 0.00 | 35 | 1025.2 |
| 20260510064121 | 65 | 254 | 5.0 | 10.0 | 0.00 | 0.00 | 0.00 | 35 | 1025.2 |
| 20260510063121 | 65 | 241 | 6.0 | 8.0 | 0.00 | 0.00 | 0.00 | 36 | 1025.1 |
| 20260510062118 | 65 | 246 | 7.0 | 9.0 | 0.00 | 0.00 | 0.00 | 35 | 1025.5 |
| 20260510061117 | 66 | 246 | 7.0 | 9.0 | 0.00 | 0.00 | 0.00 | 35 | 1025.6 |
| 20260510060116 | 66 | 255 | 5.0 | 8.0 | 0.00 | 0.00 | 0.00 | 35 | 1025.5 |
| 20260510055116 | 67 | 261 | 4.0 | 7.0 | 0.00 | 0.00 | 0.00 | 34 | 1025.6 |
| 20260510054112 | 67 | 264 | 3.0 | 5.0 | 0.00 | 0.00 | 0.00 | 34 | 1025.6 |
| 20260510053109 | 67 | 249 | 3.0 | 5.0 | 0.00 | 0.00 | 0.00 | 34 | 1025.6 |
| 20260510052108 | 67 | 280 | 4.0 | 6.0 | 0.00 | 0.00 | 0.00 | 34 | 1025.6 |
| 20260510051106 | 67 | 231 | 1.0 | 5.0 | 0.00 | 0.00 | 0.00 | 35 | 1026.0 |
| 20260510050106 | 68 | 236 | 3.0 | 6.0 | 0.00 | 0.00 | 0.00 | 34 | 1026.1 |
| 20260510045105 | 68 | 245 | 3.0 | 6.0 | 0.00 | 0.00 | 0.00 | 34 | 1025.7 |
| 20260510044104 | 68 | 283 | 4.0 | 7.0 | 0.00 | 0.00 | 0.00 | 34 | 1025.5 |
| 20260510043102 | 68 | 287 | 4.0 | 8.0 | 0.00 | 0.00 | 0.00 | 34 | 1025.5 |
| 20260510042102 | 68 | 254 | 1.0 | 6.0 | 0.00 | 0.00 | 0.00 | 35 | 1025.3 |
| 20260510041103 | 68 | 299 | 2.0 | 7.0 | 0.00 | 0.00 | 0.00 | 34 | 1025.1 |
| 20260510035057 | 69 | 139 | 4.0 | 7.0 | 0.00 | 0.00 | 0.00 | 33 | 1025.1 |
| 20260510034052 | 69 | 228 | 0.0 | 3.0 | 0.00 | 0.00 | 0.00 | 32 | 1024.8 |
| 20260510033052 | 69 | 277 | 1.0 | 2.0 | 0.00 | 0.00 | 0.00 | 32 | 1024.6 |
| 20260510032049 | 69 | 305 | 2.0 | 5.0 | 0.00 | 0.00 | 0.00 | 32 | 1024.5 |
| 20260510031046 | 69 | 251 | 1.0 | 3.0 | 0.00 | 0.00 | 0.00 | 32 | 1023.9 |
| 20260510030045 | 69 | 273 | 4.0 | 9.0 | 0.00 | 0.00 | 0.00 | 32 | 1024.2 |
| 20260510025046 | 70 | 281 | 5.0 | 8.0 | 0.00 | 0.00 | 0.00 | 32 | 1024.2 |
| 20260510024044 | 70 | 233 | 1.0 | 3.0 | 0.00 | 0.00 | 0.00 | 31 | 1023.8 |
| 20260510023044 | 71 | 281 | 4.0 | 6.0 | 0.00 | 0.00 | 0.00 | 29 | 1023.9 |
| 20260510022043 | 71 | 253 | 3.0 | 6.0 | 0.00 | 0.00 | 0.00 | 29 | 1023.7 |
| 20260510021044 | 71 | 299 | 7.0 | 8.0 | 0.00 | 0.00 | 0.00 | 29 | 1023.8 |
| 20260510020040 | 72 | 224 | 2.0 | 5.0 | 0.00 | 0.00 | 0.00 | 29 | 1023.3 |
| 20260510015037 | 72 | 222 | 0.0 | 6.0 | 0.00 | 0.00 | 0.00 | 28 | 1023.2 |
| 20260510014037 | 72 | 240 | 3.0 | 5.0 | 0.00 | 0.00 | 0.00 | 28 | 1023.6 |
| 20260510013033 | 73 | 278 | 2.0 | 3.0 | 0.00 | 0.00 | 0.00 | 28 | 1023.1 |
| 20260510012030 | 73 | 58 | 3.0 | 6.0 | 0.00 | 0.00 | 0.00 | 27 | 1022.9 |
| 20260510011026 | 74 | 285 | 3.0 | 7.0 | 0.00 | 0.00 | 0.00 | 26 | 1022.7 |
| 20260510010026 | 74 | 296 | 4.0 | 7.0 | 0.00 | 0.00 | 0.00 | 26 | 1022.5 |
| 20260510005025 | 75 | 306 | 4.0 | 7.0 | 0.00 | 0.00 | 0.00 | 25 | 1022.4 |
| 20260510004020 | 75 | 243 | 7.0 | 10.0 | 0.00 | 0.00 | 0.00 | 22 | 1022.4 |
| 20260510003018 | 76 | 264 | 6.0 | 9.0 | 0.00 | 0.00 | 0.00 | 22 | 1022.3 |
| 20260510002017 | 76 | 253 | 7.0 | 8.0 | 0.00 | 0.00 | 0.00 | 22 | 1022.0 |
| 20260510001012 | 76 | 235 | 7.0 | 10.0 | 0.00 | 0.00 | 0.00 | 21 | 1022.0 |
| 20260510000009 | 76 | 267 | 6.0 | 13.0 | 0.00 | 0.00 | 0.00 | 21 | 1021.8 |
| 20260509235008 | 76 | 244 | 6.0 | 9.0 | 0.00 | 0.00 | 0.00 | 22 | 1021.9 |
| 20260509234003 | 76 | 268 | 8.0 | 13.0 | 0.00 | 0.00 | 0.00 | 21 | 1021.5 |
| 20260509233002 | 76 | 221 | 3.0 | 3.0 | 0.00 | 0.00 | 0.00 | 22 | 1021.8 |
| 20260509232002 | 77 | 274 | 5.0 | 8.0 | 0.00 | 0.00 | 0.00 | 23 | 1022.0 |
| 20260509230956 | 76 | 231 | 7.0 | 9.0 | 0.00 | 0.00 | 0.00 | 23 | 1021.5 |